This is the latest recevied weather packets stored in our database for station/object K5NCO. If no packets are shown the sender has not sent any weather packets the latest 10 day(s).
| Time | Temp. | Humidity | Pressure | Rain* | Wind** | Luminosity | Snow |
|---|---|---|---|---|---|---|---|
| 1777860723 | 21.67° C | 48% | 1019 hPa | 0 mm | - | 0 W/m² | - |
| 1777860420 | 21.67° C | 48% | 1018.8 hPa | 0 mm | - | 0 W/m² | - |
| 1777860115 | 21.67° C | 47% | 1018.8 hPa | 0 mm | - | 0 W/m² | - |
| 1777859812 | 21.67° C | 46% | 1018.5 hPa | 0 mm | - | 0 W/m² | - |
| 1777859509 | 22.22° C | 46% | 1018.4 hPa | 0 mm | - | 0 W/m² | - |
| 1777859204 | 22.22° C | 45% | 1018.4 hPa | 0 mm | - | 0 W/m² | - |
| 1777858902 | 22.22° C | 45% | 1018.5 hPa | 0 mm | - | 0 W/m² | - |
| 1777858600 | 22.78° C | 44% | 1018.5 hPa | 0 mm | - | 0 W/m² | - |
| 1777858296 | 22.78° C | 44% | 1018.3 hPa | 0 mm | - | 0 W/m² | - |
| 1777857993 | 22.78° C | 43% | 1018.5 hPa | 0 mm | - | 0 W/m² | - |
| 1777857692 | 22.78° C | 43% | 1018.3 hPa | 0 mm | - | 0 W/m² | - |
| 1777857388 | 22.78° C | 42% | 1018.6 hPa | 0 mm | - | 1 W/m² | - |
| 1777857085 | 22.78° C | 42% | 1018.6 hPa | 0 mm | - | 2 W/m² | - |
| 1777856780 | 22.78° C | 41% | 1018.4 hPa | 0 mm | - | 3 W/m² | - |
| 1777856476 | 23.33° C | 42% | 1018.5 hPa | 0 mm | - | 6 W/m² | - |
| 1777856173 | 23.33° C | 41% | 1018.5 hPa | 0 mm | - | 8 W/m² | - |
| 1777855870 | 23.33° C | 41% | 1018.4 hPa | 0 mm | - | 10 W/m² | - |
| 1777855568 | 23.33° C | 41% | 1018.4 hPa | 0 mm | - | 15 W/m² | - |
| 1777855266 | 23.33° C | 41% | 1018.5 hPa | 0 mm | - | 20 W/m² | - |
| 1777854961 | 23.33° C | 41% | 1018.5 hPa | 0 mm | - | 23 W/m² | - |
| 1777854658 | 23.89° C | 42% | 1018.5 hPa | 0 mm | - | 30 W/m² | - |
| 1777854355 | 23.89° C | 42% | 1018.5 hPa | 0 mm | - | 42 W/m² | - |
| 1777854053 | 23.89° C | 42% | 1018.8 hPa | 0 mm | - | 58 W/m² | - |
| 1777853750 | 23.89° C | 41% | 1018.7 hPa | 0 mm | - | 71 W/m² | - |
| 1777853446 | 23.89° C | 42% | 1018.6 hPa | 0 mm | - | 63 W/m² | - |
* Rain latest hour (hover to see other rain measurements)
** Current wind speed in m/s (hover to see current wind gust speed)